Location: Home
(42.5358°N, 72.7383°W)
Time: 09:15:20
(UTC-05:00)

Transit 4A - Pass Details

Date: 02 December 2021
Orbit: 864 x 981 km, 66.8° (Epoch: 21 January)

Event Time Altitude Azimuth Distance (km) Brightness Sun altitude
Rises 18:11:22 0° 174° (S) 3,437 10.9 -20.2°
Reaches altitude 10° 18:14:11 10° 162° (SSE) 2,514 10.1 -20.7°
Enters shadow 18:17:14 23° 133° (SE) 1,786 9.1 -21.3°
